MDT,Max TemperatureF,Mean TemperatureF,Min TemperatureF,Max Dew PointF,MeanDew PointF,Min DewpointF,Max Humidity, Mean Humidity, Min Humidity, Max Sea Level PressureIn, Mean Sea Level PressureIn, Min Sea Level PressureIn, Max VisibilityMiles, Mean VisibilityMiles, Min VisibilityMiles, Max Wind SpeedMPH, Mean Wind SpeedMPH, Max Gust SpeedMPH,PrecipitationIn, CloudCover, Events, WindDirDegrees
2012-10-1,82,65,47,31,29,26,45,30,15,30.15,30.06,29.98,10,10,10,13,3,17,0.00,0,,276
2012-10-2,84,64,44,30,25,17,41,26,11,30.01,29.92,29.82,10,10,10,12,2,15,0.00,0,,250
2012-10-3,86,65,44,26,19,15,34,21,8,29.91,29.85,29.78,10,10,10,22,5,28,0.00,0,,279
2012-10-4,84,64,43,22,16,7,23,17,10,30.07,29.89,29.79,10,10,10,24,6,28,0.00,0,,258
2012-10-5,77,63,49,23,14,6,30,19,7,30.08,29.89,29.80,10,10,10,20,9,25,0.00,0,,301
2012-10-6,67,57,47,9,4,-1,18,13,7,30.09,29.97,29.90,10,10,10,28,6,32,0.00,0,,84
2012-10-7,66,49,31,9,3,-2,29,18,7,30.16,30.05,29.99,10,10,10,10,2,15,0.00,0,,278
2012-10-8,71,51,31,7,3,-2,24,16,7,30.09,30.00,29.90,10,10,10,10,3,13,0.00,0,,274
2012-10-9,76,56,36,24,13,3,25,19,13,30.00,29.93,29.88,10,10,10,10,2,15,0.00,0,,253
2012-10-10,79,62,45,28,22,11,31,23,15,30.01,29.92,29.83,10,10,10,10,3,16,0.00,0,,263
2012-10-11,80,63,45,32,28,23,41,28,15,29.97,29.89,29.84,10,10,10,20,6,26,0.00,0,,276
2012-10-12,64,56,48,52,45,33,89,63,36,30.02,29.94,29.83,10,8,2,35,8,48,0.43,6,Rain-Thunderstorm,191
2012-10-13,64,54,44,47,43,39,92,68,43,30.23,30.09,29.99,10,10,10,14,3,17,T,3,,296
2012-10-14,68,55,42,46,43,39,93,65,37,30.32,30.23,30.17,10,10,10,9,1,13,0.00,1,,274
2012-10-15,70,55,40,42,41,39,92,63,33,30.19,30.07,29.96,10,10,10,9,3,12,0.00,0,,322
2012-10-16,78,59,40,42,37,28,89,53,16,29.98,29.82,29.62,10,10,10,24,6,31,0.00,0,,264
2012-10-17,66,55,43,35,9,1,39,24,8,30.06,29.94,29.79,10,10,10,20,10,31,0.00,0,,284
2012-10-18,67,50,33,17,10,4,44,26,8,30.20,30.13,30.06,10,10,10,13,2,14,0.00,0,,302
2012-10-19,71,53,34,23,18,16,47,30,12,30.14,30.04,29.91,10,10,10,10,2,14,0.00,0,,271
2012-10-20,77,57,37,24,20,14,52,31,10,29.91,29.78,29.62,10,10,10,13,3,16,0.00,0,,177
2012-10-21,75,58,40,34,28,17,40,31,21,29.87,29.71,29.65,10,10,10,23,7,28,0.00,1,,200
2012-10-22,74,62,49,37,33,31,50,36,22,29.87,29.71,29.64,10,10,10,28,11,36,0.00,1,,179
2012-10-23,71,62,52,36,28,20,46,31,15,29.84,29.67,29.60,10,10,10,28,13,35,0.00,0,,218
2012-10-24,61,46,30,37,25,19,70,46,21,30.03,29.78,29.66,10,10,9,35,9,41,T,3,Rain,284
2012-10-25,55,40,25,27,18,9,70,43,16,30.31,30.16,30.04,10,10,10,25,9,31,0.00,1,,294
2012-10-26,49,34,19,17,11,3,68,44,19,30.48,30.36,30.25,10,10,8,13,4,16,0.00,0,,300
2012-10-27,55,38,20,11,9,5,47,31,15,30.30,30.21,30.15,10,10,10,13,2,13,0.00,0,,303
2012-10-28,64,46,28,15,12,8,39,27,14,30.24,30.17,30.09,10,10,10,5,2,6,0.00,0,,268
2012-10-29,68,51,33,23,19,13,41,29,16,30.25,30.17,30.09,10,10,10,12,2,12,0.00,0,,285
2012-10-30,69,49,29,24,20,12,51,34,17,30.25,30.16,30.08,10,10,10,7,2,8,0.00,0,,215
2012-10-31,69,51,33,24,21,17,51,34,17,30.20,30.11,30.04,10,10,10,10,3,12,0.00,0,,268